Regional Weather Roundup
Issued by NWS

Home | Current Version | Previous Version | Graphics & Text | Print | Product List | Glossary On
Versions: 1 2 3 4 5 6 7 8 9 10 11 12 13 14 15 16 17 18 19 20 21 22 23 24 25 26 27 28 29 30 31 32 33 34 35 36 37 38 39 40 41 42 43 44 45 46 47 48 49 50
000
ASUS45 KBOU 240010
RWRCO

WEATHER ROUNDUP FOR COLORADO
NATIONAL WEATHER SERVICE PUEBLO CO
600 PM MDT MON APR 23 2018

NOTE: "FAIR" INDICATES FEW OR NO CLOUDS BELOW 12000 FEET WITH NO
SIGNIFICANT WEATHER AND/OR OBSTRUCTIONS TO VISIBILITY.

COZ001>005-013-030-031-240100-
...NORTHWEST COLORADO...

CITY           SKY/WX    TMP DP  RH WIND       PRES   REMARKS
CRAIG          CLOUDY    61  37  41 N15G23    30.06R
HAYDEN         CLOUDY    62  32  32 NW13G24   30.07R
MEEKER         CLOUDY    67  27  22 SW8G28    30.06R
RABBIT EARS PA NOT AVBL
STEAMBOAT SPGS FAIR      61  32  33 NW16G23   30.07R
WALDEN         FAIR      50  32  50 N28G36    30.15R
$$

COZ006>008-011-240100-
...WEST CENTRAL VALLEYS...

CITY           SKY/WX    TMP DP  RH WIND       PRES   REMARKS
GRAND JUNCTION CLOUDY    77  23  13 W20       29.95F
MONTROSE       PTSUNNY   74  13   9 W12       30.01S
EAGLE          CLOUDY    65  26  23 NW12      30.07S
RIFLE          CLOUDY    73  23  15 NW8       29.99S
DELTA          NOT AVBL
NUCLA          FAIR      77  12   8 W12       30.06S
$$

COZ017>023-064>068-240100-
...SOUTHWEST COLORADO...

CITY           SKY/WX    TMP DP  RH WIND       PRES   REMARKS
DURANGO        SUNNY     71  12  10 SW18G29   30.09S
CORTEZ         SUNNY     75   5   6 VRB6G26   30.06F
PAGOSA SPRINGS FAIR      69   7   9 SW13G20   30.14S
TELLURIDE      MOSUNNY   58  14  17 W15G21    30.24S
WOLF CREEK PAS CLOUDY    43  16  33 SW12G24   30.42S
$$

COZ009-010-012-014-032>034-037-058>063-240100-
...CENTRAL COLORADO...

CITY           SKY/WX    TMP DP  RH WIND       PRES   REMARKS
ASPEN          CLOUDY    63  20  19 SW6       30.11S
BUENA VISTA    FAIR      64  12  13 W18G25    30.12S
COPPER MTN     NOT AVBL
BERTHOUD PASS  CLOUDY    34  27  75 W17G25    30.36R WCI  23
COTTONWOOD PAS MOSUNNY   61  18  18 CALM      30.23S
GUNNISON       MOSUNNY   65  21  18 SW14      30.12S
KREMMLING      CLOUDY    63  27  25 W14       30.12R
LEADVILLE      PTSUNNY   51  18  27 N7G21     30.23S
MONARCH PASS   CLOUDY    43  14  31 W24G32    30.45R
SALIDA         FAIR      69  13  11 W12G20    30.17S
SUNLIGHT       CLOUDY    41  19  42 SW7G18    30.31S
WILKERSON PASS MOSUNNY   48  12  23 W10G20    30.32R
$$

COZ069>075-240100-
...SAN LUIS VALLEY/SANGRE DE CRISTO MOUNTAINS...

CITY           SKY/WX    TMP DP  RH WIND       PRES   REMARKS
ALAMOSA        MOSUNNY   68  19  15 SW12      30.10F
DEL NORTE      FAIR      64  20  18 SW16G22   30.14S
LA VETA PASS   PTSUNNY   54  23  30 SW10      30.38S
SAGUACHE       NOT AVBL
$$

COZ035-036-038>040-240100-
...NORTHERN COLORADO FRONT RANGE...

CITY           SKY/WX    TMP DP  RH WIND       PRES   REMARKS
DENVER INTL AP PTSUNNY   70  34  26 E5        29.99R
DMNS CITY PARK NOT AVBL
AURORA         NOT AVBL
FRONT RANGE AP PTSUNNY   72  30  21 N5        29.99F
ERIE MUNI ARPT FAIR      71  31  22 SE3       30.02R
BOULDER MUN AP FAIR      68  34  28 SE7       29.97S
CENTENNIAL     PTSUNNY   64  40  41 S14       30.01R
BROOMFIELD     PTSUNNY   68  32  26 MISG      30.00R
LOVELAND       CLOUDY    66  37  34 W18G24    29.99R
LONGMONT       FAIR      70  38  31 N13       30.00R
$$

COZ041-046-047-076>085-087-088-240100-
...PIKES PEAK/PALMER DIVIDE AND SOUTHERN FOOTHILLS...

CITY           SKY/WX    TMP DP  RH WIND       PRES   REMARKS
COLO. SPRINGS  PTSUNNY   66  35  31 S6        30.07R
A. F. ACADEMY  NOT AVBL
SCHRIEVER AFB  NOT AVBL
CHEYENNE MTN   NOT AVBL
ELLICOTT         N/A    N/A N/A N/A SE12      30.05S
FALCON         FAIR      63  31  30 SE6       30.10S
FORT CARSON    MOSUNNY   62  40  44 W6        30.03R
LIMON          MOSUNNY   62  38  40 SE10      30.04R
MONUMENT HILL  MOSUNNY   54  37  54 SE5       30.10F
CANON CITY     FAIR      70  37  30 NE9       30.00R
WALSENBURG     FAIR      75  23  14 CALM      30.02S
TRINIDAD       MOSUNNY   73  27  18 VRB3      30.02F
$$

COZ042>045-048>051-090-091-240100-
...NORTHEAST COLORADO...

CITY           SKY/WX    TMP DP  RH WIND       PRES   REMARKS
GREELEY ARPT   MOSUNNY   68  39  34 NE5       29.97R
AKRON          SUNNY     66  43  43 SE20G28   30.00S
BURLINGTON     SUNNY     65  41  41 S17       30.04R
WRAY           FAIR      68  37  32 S15       30.01S
YUMA           NOT AVBL
STERLING       NOT AVBL
HOLYOKE        FAIR      70  37  30 S17       30.02R
FORT MORGAN    MOCLDY    72  37  27 SE16      29.96S
$$

COZ086-089-092>099-240100-
...SOUTHEAST COLORADO...

CITY           SKY/WX    TMP DP  RH WIND       PRES   REMARKS
PUEBLO         MOSUNNY   76  35  22 SE10      29.96S
LA JUNTA       MOSUNNY   76  33  21 SE8       29.95F
LAMAR          MOSUNNY   74  41  30 SE13      29.96S
SPRINGFIELD      N/A     68  42  38 S20       30.01F
$$





USA.gov is the U.S. government's official web portal to all federal, state and local government web resources and services.